Date,TemperatureHighF,TemperatureAvgF,TemperatureLowF,DewpointHighF,DewpointAvgF,DewpointLowF,HumidityHigh,HumidityAvg,HumidityLow,PressureMaxIn,PressureMinIn,WindSpeedMaxMPH,WindSpeedAvgMPH,GustSpeedMaxMPH,PrecipitationSumIn
2012-1-1,33.7,28.3,19.7,33.7,23.3,11.2,100,81,65,30.11,29.55,34,13,37,0.04
2012-1-2,19.5,16.3,9.7,11.6,6.2,0.8,76,64,53,30.47,30.11,27,10,31,0.00
2012-1-3,26.3,16.5,3.7,12.4,5.6,-0.5,89,63,44,30.45,29.87,5,0,10,0.00
2012-1-4,34.0,26.9,21.8,21.5,18.2,12.2,88,70,57,29.99,29.85,13,3,16,0.00
2012-1-5,52.3,36.0,18.6,34.7,27.3,16.9,100,74,45,29.93,29.51,16,1,17,0.00
2012-1-6,47.6,41.0,35.6,34.3,25.9,-99.9,71,60,50,29.71,29.51,16,-30,19,0.00
2012-1-7,37.5,26.7,20.2,27.2,2.5,-99.9,93,58,53,30.19,29.72,24,-159,24,0.00
2012-1-8,39.8,28.9,18.6,27.5,22.8,-99.9,97,81,57,30.28,30.10,11,1,12,0.00
2012-1-9,45.5,35.8,29.5,29.5,22.6,-99.9,86,66,48,30.10,29.78,19,-35,26,0.00
2012-1-10,52.2,25.3,22.9,37.0,-18.9,-99.9,100,60,47,29.93,29.60,16,-154,16,0.00
2012-1-11,49.2,31.3,21.4,33.9,17.2,-99.9,94,73,52,29.63,29.49,17,-66,22,0.00
2012-1-12,21.3,15.2,12.4,18.3,10.8,6.9,88,83,76,29.67,29.55,20,9,24,0.00
2012-1-13,16.7,14.1,12.4,9.5,7.7,5.8,81,75,70,30.00,29.67,19,7,27,0.00
2012-1-14,18.1,14.0,11.7,12.0,6.1,2.9,85,71,56,30.14,29.98,0,0,0,0.00
2012-1-15,33.7,25.3,16.7,25.6,19.2,12.4,88,78,63,30.16,29.79,13,2,18,0.00
2012-1-16,38.3,29.6,20.6,29.1,24.5,-99.9,100,84,67,29.78,29.64,7,1,10,0.00
2012-1-17,30.4,18.8,6.3,24.1,11.1,-3.5,90,72,59,30.23,29.72,22,6,25,0.00
2012-1-18,21.9,10.5,-4.6,18.4,1.2,-9.4,90,67,44,30.23,29.66,21,2,33,0.00
2012-1-19,15.1,-2.7,-10.7,9.0,-16.5,-24.7,78,52,30,30.21,29.70,22,7,33,0.00
2012-1-20,5.6,-1.5,-11.5,-0.6,-8.3,-19.4,81,72,58,30.23,30.16,1,0,2,0.00
2012-1-21,17.0,-2.2,-13.3,3.2,-11.5,-99.9,82,69,50,30.28,30.16,1,0,3,0.01
2012-1-22,29.4,20.1,16.2,29.4,9.6,0.9,100,66,50,30.18,29.44,3,0,4,0.00
2012-1-23,30.0,27.1,23.3,30.0,25.1,18.9,100,92,78,29.83,29.31,24,8,26,0.00
2012-1-24,27.2,22.0,16.1,19.8,17.1,12.9,90,81,70,30.30,29.83,14,5,19,0.00
2012-1-25,32.4,25.8,17.2,24.9,20.9,14.6,91,82,73,30.35,29.93,5,0,8,0.00
2012-1-26,35.5,32.2,26.9,32.4,29.0,23.4,100,88,68,29.93,29.62,20,2,24,0.11
2012-1-27,37.5,30.4,18.4,33.1,22.3,13.4,100,74,37,29.84,29.68,21,3,28,0.03
2012-1-28,30.3,23.9,19.2,25.2,14.7,10.9,82,68,56,29.97,29.76,21,8,25,0.03
2012-1-29,22.4,16.8,6.9,18.7,8.6,1.0,92,71,47,30.17,29.91,17,4,20,0.00
2012-1-30,42.5,26.9,8.3,28.2,19.3,3.8,96,74,53,30.12,29.67,7,0,10,0.02
2012-1-31,47.0,39.2,24.8,35.4,31.2,-99.9,100,76,58,29.87,29.58,19,4,26,0.02
2012-2-1,36.2,32.8,29.1,32.9,30.1,28.6,100,90,83,30.12,29.87,20,2,20,0.00
2012-2-2,34.0,31.5,29.5,32.8,30.4,29.3,100,96,88,30.37,30.11,8,1,12,0.00
2012-2-3,32.8,30.4,23.3,30.2,28.2,22.6,97,92,84,30.47,30.37,6,0,8,0.00
2012-2-4,46.4,30.7,16.7,31.2,23.5,16.0,100,78,38,30.40,30.21,10,0,13,0.00
2012-2-5,31.0,27.7,22.1,28.6,26.5,21.9,100,95,86,30.33,30.16,14,1,14,0.00
2012-2-6,38.6,30.5,26.7,29.7,27.1,25.0,100,88,67,30.19,30.02,13,2,24,0.00
2012-2-7,32.7,26.2,16.7,27.9,18.5,12.2,87,73,59,30.45,30.19,8,0,11,0.00
2012-2-8,30.1,21.0,11.2,13.8,6.8,-2.5,88,57,27,30.44,30.24,13,3,14,0.00
2012-2-9,33.7,25.2,17.3,23.5,14.6,7.6,79,64,42,30.24,29.89,18,2,20,0.00
2012-2-10,31.2,19.3,8.3,27.2,7.7,-10.5,85,62,41,30.39,29.82,21,7,24,0.00
2012-2-11,16.9,10.8,3.5,-4.2,-9.3,-15.3,51,39,30,30.48,30.37,24,9,24,0.00
2012-2-12,29.1,18.7,10.5,3.8,-1.3,-4.8,54,42,24,30.37,30.13,17,6,20,0.00
2012-2-13,32.4,23.6,9.3,27.8,15.9,0.0,100,74,43,30.12,29.74,5,0,12,0.00
2012-2-14,33.1,29.9,26.4,29.8,26.9,24.6,100,89,72,29.84,29.71,7,0,10,0.06
2012-2-15,43.2,34.0,27.8,32.9,29.5,26.6,99,84,60,29.95,29.84,6,0,8,0.04
2012-2-16,41.5,33.4,28.1,30.4,24.8,19.1,99,73,42,30.05,29.92,19,5,25,0.04
2012-2-17,42.1,32.9,23.6,29.6,25.4,20.6,93,75,57,30.05,29.90,17,3,19,0.00
2012-2-18,37.5,28.9,18.4,25.2,18.0,-99.9,90,67,37,30.22,30.03,11,1,13,0.00
2012-2-19,41.1,26.4,12.3,30.0,17.1,10.4,100,72,33,30.18,30.09,11,0,12,0.00
2012-2-20,41.8,30.5,15.2,27.9,19.2,13.1,98,66,35,30.18,29.75,18,3,21,0.00
2012-2-21,39.6,34.4,31.5,34.7,29.6,19.9,100,84,57,29.75,29.48,26,8,34,0.10
2012-2-22,40.5,32.5,23.9,25.8,21.6,15.7,89,66,41,29.52,29.34,16,4,18,0.10
2012-2-23,40.5,30.1,18.0,24.8,21.0,16.8,99,71,48,29.59,29.41,3,0,7,0.00
2012-2-24,31.6,28.0,21.9,23.2,18.6,10.8,76,67,52,29.93,29.56,24,7,24,0.00
2012-2-25,31.2,21.5,12.9,15.7,10.9,4.6,74,64,46,30.21,29.93,18,5,21,0.00
2012-2-26,47.0,32.3,20.8,31.8,20.2,12.6,76,62,45,30.19,29.72,27,6,28,0.00
2012-2-27,34.1,27.5,20.2,20.2,18.0,15.4,86,68,48,30.43,29.92,28,8,28,0.00
2012-2-28,34.7,29.9,20.2,32.9,24.5,16.5,100,82,57,30.40,29.70,12,1,14,0.27
2012-2-29,36.0,33.3,32.1,36.0,32.9,31.2,100,98,88,29.70,29.26,14,3,20,0.28
2012-3-1,33.7,31.7,28.1,33.5,28.8,27.1,100,89,79,29.77,29.56,13,2,16,0.05
2012-3-2,34.3,30.2,25.4,33.5,28.4,21.5,100,93,73,29.76,29.50,19,2,21,0.09
2012-3-3,29.0,26.5,24.1,25.8,21.3,18.0,95,81,71,29.77,29.49,21,9,22,0.09
2012-3-4,27.5,23.0,16.1,22.3,18.5,11.4,92,83,67,30.05,29.77,10,2,12,0.01
2012-3-5,34.7,25.0,10.5,23.0,17.1,8.4,92,73,51,30.25,30.01,17,1,17,0.01
2012-3-6,60.9,45.9,27.5,43.2,33.9,21.9,81,64,47,30.01,29.61,16,1,16,0.01
2012-3-7,58.9,51.2,36.0,55.0,42.4,30.1,100,73,52,29.77,29.51,17,5,25,0.08
2012-3-8,37.5,32.6,27.3,30.9,18.9,-99.9,82,60,28,30.20,29.77,25,0,30,0.08
2012-3-9,35.9,26.7,18.4,9.7,4.4,-2.5,63,40,21,30.55,30.21,21,5,29,0.00
2012-3-10,63.9,48.0,28.7,29.9,22.7,9.1,53,38,23,30.34,29.93,24,5,34,0.00
2012-3-11,69.6,55.5,45.1,37.3,30.1,24.5,60,40,19,30.04,29.78,14,1,17,0.00
2012-3-12,56.2,51.7,48.6,51.1,47.1,37.8,100,85,51,29.78,29.59,17,4,24,0.02
2012-3-13,66.6,51.1,38.9,46.4,33.8,23.3,89,57,22,30.00,29.74,14,2,19,0.02
2012-3-14,75.1,56.5,35.2,59.1,48.8,33.6,99,78,55,29.91,29.71,18,3,22,0.00
2012-3-15,74.4,57.1,43.8,58.0,50.3,43.8,100,81,40,29.94,29.78,7,0,7,0.00
2012-3-16,79.0,58.6,40.6,62.7,52.0,40.6,100,81,52,29.96,29.81,11,1,13,0.00
2012-3-17,82.4,70.7,61.2,63.6,58.3,53.2,90,67,38,29.85,29.74,13,1,17,0.00
2012-3-18,81.4,69.6,53.5,60.2,56.9,50.1,94,66,43,29.83,29.72,14,2,20,0.00
2012-3-19,74.2,66.2,54.7,62.3,59.4,54.6,100,80,58,29.81,29.68,18,2,20,0.00
2012-3-20,80.1,67.9,58.1,63.5,58.4,53.5,100,75,46,29.86,29.71,17,1,18,0.08
2012-3-21,78.5,68.0,58.7,59.5,55.1,49.8,94,65,43,29.99,29.84,12,2,15,0.00
2012-3-22,74.7,63.4,56.7,63.5,59.4,56.4,100,88,57,30.00,29.91,14,2,15,0.15
2012-3-23,61.3,58.3,55.9,60.5,58.2,55.9,100,99,92,29.94,29.76,7,1,11,0.13
2012-3-24,62.0,56.8,52.8,60.4,56.5,52.8,100,99,91,29.92,29.76,5,0,7,0.01
2012-3-25,65.6,54.7,46.8,53.3,43.8,24.6,100,73,28,30.16,29.91,10,2,14,0.01
2012-3-26,46.5,39.8,32.9,38.5,26.3,20.9,82,59,46,30.37,30.09,17,7,22,0.01
2012-3-27,76.3,55.3,38.9,57.8,39.0,24.8,69,56,28,30.09,29.53,32,10,37,0.00
2012-3-28,57.0,49.6,40.2,41.4,37.2,33.4,90,63,45,30.01,29.66,27,8,29,0.00
2012-3-29,53.8,42.3,32.4,37.8,33.8,30.1,99,73,46,30.11,29.85,16,4,22,0.00
2012-3-30,42.2,38.3,33.8,41.9,37.4,30.0,100,97,76,29.90,29.75,14,1,14,0.06
2012-3-31,42.8,39.8,37.5,41.3,38.9,37.0,100,97,90,29.92,29.72,12,3,16,0.06
2012-4-1,58.6,46.7,37.2,47.8,41.4,37.2,100,84,48,29.73,29.65,11,2,17,0.00
2012-4-2,65.5,52.5,43.2,43.4,38.8,34.3,82,61,39,29.84,29.73,17,6,21,0.00
2012-4-3,59.9,51.8,39.2,47.0,40.8,36.0,95,67,43,29.97,29.75,12,2,17,0.00
2012-4-4,64.8,48.4,30.7,40.0,30.7,22.5,100,59,21,30.02,29.87,12,0,14,0.00
2012-4-5,54.2,43.5,32.4,33.1,27.2,20.4,79,55,28,30.17,29.95,12,2,14,0.00
2012-4-6,59.3,44.5,28.1,33.9,30.2,27.3,100,62,31,30.30,30.12,8,0,14,0.00
2012-4-7,58.1,51.9,51.1,31.3,30.6,29.4,45,44,34,30.13,30.12,0,0,6,0.00
2012-4-8,58.1,53.3,48.2,31.3,28.6,22.2,48,39,27,30.18,30.01,33,8,55,0.00
2012-4-9,27.3,27.3,27.3,17.5,17.5,17.5,66,66,66,30.06,30.06,5,5,9,0.00
2012-4-10,42.9,33.9,27.3,21.1,17.4,13.2,66,52,33,30.19,30.06,21,7,25,0.00
2012-4-11,57.0,41.5,28.4,33.1,23.3,16.7,72,51,26,30.31,30.18,11,1,12,0.00
2012-4-12,62.7,46.3,27.3,38.4,26.9,22.2,89,53,23,30.19,30.04,14,0,14,0.00
2012-4-13,58.4,52.8,50.7,45.7,35.9,29.3,82,54,33,30.02,29.80,21,3,26,0.00
2012-4-14,75.3,59.5,48.5,55.9,48.6,37.2,100,73,29,29.85,29.64,14,1,14,0.18
2012-4-15,77.0,65.3,56.0,65.6,59.7,54.0,100,84,54,29.67,29.23,18,3,26,0.36
2012-4-16,66.4,46.7,36.6,54.3,37.9,28.5,94,72,55,30.17,29.17,34,10,38,0.01
2012-4-17,59.3,44.7,27.6,38.8,32.4,27.0,100,66,35,30.32,30.10,10,0,12,0.01
2012-4-18,67.6,57.0,48.0,52.2,44.7,36.4,86,65,43,30.09,29.79,27,5,32,0.03
2012-4-19,51.0,43.1,35.5,42.6,38.4,33.7,100,85,56,29.99,29.80,10,2,18,1.20
2012-4-20,55.7,42.8,34.1,39.2,33.7,25.5,100,75,33,30.00,29.82,12,2,18,1.25
2012-4-21,55.0,45.0,30.9,36.3,30.2,24.6,100,60,33,30.05,29.91,10,0,11,0.00
2012-4-22,56.6,47.4,36.6,36.6,28.2,-99.9,73,50,25,30.12,29.95,13,1,19,0.00
2012-4-23,57.6,50.4,38.5,38.0,35.5,28.5,87,59,39,30.09,29.95,11,3,18,0.00
2012-4-24,56.7,56.3,55.4,36.2,35.6,32.7,46,46,42,29.99,29.97,7,6,18,0.00
2012-4-25,57.2,50.0,43.1,50.1,43.1,32.7,100,79,43,29.99,29.58,14,2,18,0.10
2012-4-26,54.8,46.9,35.2,43.8,33.3,20.6,100,65,27,30.14,29.66,19,4,21,0.00
2012-4-27,56.5,45.1,28.1,38.5,24.9,17.2,98,50,25,30.22,30.04,13,2,17,0.00
2012-4-28,45.8,41.8,39.1,40.6,28.0,16.6,100,62,31,30.14,29.99,18,4,24,0.16
2012-4-29,56.2,45.3,32.8,41.8,33.9,21.0,100,71,28,30.24,30.00,10,2,22,0.51
2012-4-30,41.8,41.6,41.5,41.8,41.6,41.5,100,100,100,30.02,30.00,6,3,11,0.00
2012-5-2,82.0,70.7,58.3,68.1,61.9,58.3,100,76,49,29.72,29.46,32,4,32,0.68
2012-5-3,81.4,69.2,62.1,68.6,64.3,-99.9,100,88,54,29.78,29.64,10,0,26,0.71
2012-5-4,64.5,60.9,57.6,63.9,57.0,50.7,100,88,68,29.95,29.78,12,2,16,0.00
2012-5-5,61.5,54.5,48.9,58.6,53.7,48.4,100,97,83,30.04,29.89,13,2,26,0.24
2012-5-6,66.0,58.1,49.5,62.2,56.7,49.5,100,95,84,29.93,29.80,8,1,12,0.86
2012-5-7,69.1,52.6,48.8,75.7,42.9,-99.9,100,75,45,29.90,29.77,15,-46,16,0.00
2012-5-8,60.9,50.2,43.9,89.0,46.6,-99.9,99,64,50,29.81,29.73,11,-20,17,0.29
2012-5-9,64.3,53.3,44.6,48.1,42.2,33.3,100,70,34,29.92,29.80,7,2,17,0.00
2012-5-10,72.3,58.3,36.8,49.0,40.7,31.9,100,59,24,29.92,29.81,4,0,8,0.00
2012-5-11,80.1,61.1,44.3,57.8,49.5,43.4,100,69,45,29.89,29.82,11,1,18,0.00
2012-5-12,70.8,59.7,47.1,48.7,40.8,26.2,87,55,21,30.22,30.06,5,0,17,0.00
2012-5-13,73.3,51.9,39.5,51.7,38.1,-99.9,100,70,21,30.23,30.02,3,0,12,0.00
2012-5-14,80.1,64.1,44.5,49.6,41.9,35.4,86,49,23,30.02,29.81,8,1,17,0.00
2012-5-15,77.6,64.0,56.3,52.6,36.4,-99.9,58,42,24,29.94,29.72,16,-42,20,0.00
2012-5-16,70.6,45.3,41.6,50.4,2.4,-99.9,98,49,24,30.08,29.94,11,-120,13,0.00
2012-5-17,74.9,58.4,40.2,49.5,36.5,-99.9,100,59,33,30.07,29.84,8,-12,10,0.00
2012-5-18,83.8,51.9,58.0,52.9,2.8,-99.9,59,32,29,29.86,29.76,7,-190,16,0.00
2012-5-19,88.8,41.8,54.5,61.2,-9.8,-99.9,92,40,32,29.87,29.77,14,-323,14,0.00
2012-5-20,84.5,63.2,51.3,65.4,42.8,-99.9,85,63,50,30.07,29.74,19,-45,27,0.00
2012-5-21,74.4,53.1,41.5,69.8,26.6,-99.9,100,59,30,30.16,30.04,16,-64,19,0.00
2012-5-22,79.2,52.8,41.8,51.7,28.1,-99.9,100,56,28,30.08,29.76,11,-100,12,0.00
2012-5-23,81.8,66.6,53.1,52.3,44.1,-99.9,75,50,29,29.78,29.49,13,-7,18,0.00
2012-5-24,90.5,65.5,59.9,66.4,37.4,-99.9,100,51,29,29.55,29.23,16,-59,24,0.44
2012-5-25,73.9,51.9,52.5,60.9,31.3,-99.9,100,71,47,30.07,29.56,12,-135,19,0.22
2012-5-26,64.7,60.2,58.3,62.9,59.7,58.3,100,98,89,30.09,30.02,7,1,11,0.27
2012-5-27,64.8,55.1,50.0,63.6,54.2,50.0,97,65,50,29.94,29.62,6,1,17,0.00
2012-5-28,82.0,59.8,50.0,68.8,53.7,50.0,89,53,46,29.67,29.50,14,3,27,0.00
2012-5-29,65.6,61.3,54.8,51.9,47.9,43.5,86,62,47,29.77,29.65,17,7,31,0.00
2012-5-30,61.2,55.3,50.5,49.6,44.3,41.0,86,67,49,29.92,29.77,10,4,20,0.00
2012-5-31,58.9,52.6,47.1,48.8,45.6,41.3,100,78,54,29.99,29.90,7,0,12,0.00
2012-6-1,69.9,56.6,40.2,52.0,42.1,36.2,100,64,30,29.92,29.67,11,1,14,0.00
2012-6-2,74.2,63.1,50.1,48.7,43.1,37.8,72,50,29,29.68,29.62,19,5,19,0.00
2012-6-3,79.0,66.9,50.5,58.2,50.6,44.4,87,58,31,29.76,29.68,13,2,17,0.00
2012-6-4,84.0,70.1,56.3,61.8,56.6,49.3,100,66,33,29.85,29.75,5,0,7,0.00
2012-6-5,72.7,64.0,53.9,59.8,55.4,51.6,100,76,52,29.98,29.85,11,1,11,0.00
2012-6-6,77.7,64.1,49.4,59.0,50.6,43.2,100,68,31,30.05,29.96,6,0,10,0.00
2012-6-7,82.2,67.8,49.1,61.7,54.0,48.9,100,67,36,30.07,29.93,7,0,10,0.00
2012-6-8,87.2,72.6,59.0,65.2,58.4,54.3,96,65,37,29.96,29.73,14,1,19,0.01
2012-6-9,91.0,78.7,66.6,59.7,56.9,52.2,70,49,28,29.75,29.65,12,1,18,0.00
2012-6-10,91.8,77.2,57.6,66.3,60.8,53.5,100,62,29,29.76,29.64,10,1,17,0.00
2012-6-11,84.3,73.6,62.6,70.4,61.7,44.7,100,69,35,29.82,29.60,25,4,29,0.28
2012-6-12,70.1,59.4,49.4,48.4,45.1,40.7,96,61,36,30.08,29.83,18,6,21,0.00
2012-6-13,75.3,60.8,44.9,57.0,48.6,44.9,100,69,37,30.11,29.95,10,0,10,0.00
2012-6-14,81.2,66.1,50.4,60.9,53.0,44.6,89,64,41,30.00,29.82,18,2,21,0.00
2012-6-15,92.1,76.9,60.7,69.5,63.3,57.6,100,67,38,29.98,29.83,6,0,10,0.01
2012-6-16,79.6,71.9,65.8,74.6,66.2,57.4,100,83,60,29.88,29.68,14,1,19,1.23
2012-6-17,83.0,70.4,58.7,66.6,60.3,50.1,100,74,40,29.80,29.54,9,1,12,0.01
2012-6-18,89.0,79.3,64.7,78.0,69.0,-99.9,100,76,58,29.58,29.41,16,2,21,0.66
2012-6-19,93.2,82.6,73.2,75.3,69.3,-99.9,100,68,43,29.74,29.57,17,1,21,0.00
2012-6-20,91.2,80.9,65.0,72.8,69.7,65.0,100,71,50,29.79,29.59,20,2,24,0.70
2012-6-21,76.0,67.8,58.9,65.4,60.2,53.0,100,79,48,29.92,29.73,17,4,22,0.07
2012-6-22,80.1,68.9,56.2,63.1,57.9,52.5,100,72,42,29.93,29.86,13,2,16,0.00
2012-6-23,80.5,68.3,54.8,67.1,60.4,-99.9,100,80,52,29.94,29.87,0,0,2,0.01
2012-6-24,85.1,73.7,60.7,70.0,64.5,54.9,100,75,50,29.98,29.85,5,0,10,0.00
2012-6-25,75.4,65.9,53.2,55.8,50.0,44.9,96,59,36,30.11,29.98,8,1,13,0.00
2012-6-26,79.0,66.1,48.8,59.9,53.6,47.0,100,68,35,30.01,29.78,7,0,14,0.00
2012-6-27,93.2,77.4,55.7,75.0,63.4,55.3,100,66,41,29.79,29.57,13,1,17,0.00
2012-6-28,87.6,78.8,63.9,78.3,67.8,52.0,100,73,32,29.80,29.59,17,2,19,0.00
2012-6-29,90.7,74.5,58.3,68.4,63.3,57.5,100,73,34,29.81,29.70,3,0,3,0.00
2012-6-30,91.0,77.8,63.5,71.3,63.9,52.4,100,68,29,29.78,29.69,10,1,13,0.00
2012-7-1,93.6,77.3,61.5,73.5,65.7,59.0,100,73,33,29.87,29.79,6,0,11,0.00
2012-7-2,99.0,83.7,66.6,77.0,70.6,66.4,100,70,38,29.84,29.71,8,1,14,0.00
2012-7-3,98.2,85.0,70.8,74.0,69.7,62.3,91,62,40,29.84,29.63,11,1,19,0.00
2012-7-4,102.3,88.3,76.8,77.2,72.6,61.4,96,64,31,29.74,29.65,13,1,16,0.00
2012-7-5,98.7,87.5,74.0,80.0,74.0,69.5,100,66,45,29.83,29.72,11,2,13,0.00
2012-7-6,102.0,86.8,71.8,78.8,72.8,64.0,100,69,30,29.87,29.75,13,1,16,0.00
2012-7-7,85.3,75.8,67.6,73.0,67.0,58.9,97,76,44,30.00,29.79,12,1,14,0.00
2012-7-8,91.4,75.6,59.0,67.2,60.8,53.2,100,66,29,30.06,29.94,13,0,13,0.00
2012-7-9,89.3,76.2,61.2,71.2,60.3,47.8,100,63,29,30.01,29.96,7,0,13,0.00
2012-7-10,86.7,72.4,55.0,66.8,55.9,45.3,100,63,25,30.08,29.99,8,0,10,0.00
2012-7-11,91.4,74.5,55.3,62.8,57.0,50.0,100,61,26,30.08,29.96,9,0,12,0.00
2012-7-12,92.3,76.5,57.5,67.2,57.2,47.9,100,59,24,30.01,29.89,7,0,14,0.00
2012-7-13,90.3,75.8,58.0,67.9,63.3,55.9,100,68,42,29.96,29.87,8,0,11,0.00
2012-7-14,88.4,76.7,66.4,72.4,67.2,-99.9,100,76,48,29.93,29.83,14,1,16,0.13
2012-7-15,95.9,80.9,66.3,73.6,67.3,60.3,100,69,32,29.95,29.86,10,1,10,0.00
2012-7-16,98.0,83.7,65.3,73.4,65.1,-99.9,100,61,29,29.88,29.64,16,2,21,0.00
2012-7-17,98.5,85.2,73.2,73.8,69.9,64.0,97,63,34,29.77,29.64,14,2,17,0.00
2012-7-18,84.1,73.9,67.9,73.6,70.3,67.9,100,89,67,29.87,29.75,12,2,18,0.26
2012-7-19,75.1,68.2,59.0,69.4,64.8,59.0,100,90,70,30.01,29.79,10,1,11,0.00
2012-7-20,87.0,70.7,53.6,68.0,59.0,53.6,100,72,35,30.09,29.95,2,0,7,0.01
2012-7-21,87.4,72.9,63.1,72.4,67.8,62.0,100,86,54,30.00,29.90,10,1,13,0.08
2012-7-22,89.0,77.3,68.6,73.5,69.5,64.5,100,79,48,29.94,29.79,14,0,14,0.01
2012-7-23,97.5,83.3,70.1,78.3,70.6,62.0,100,70,32,29.83,29.76,12,3,17,0.00
2012-7-24,79.0,73.0,69.8,75.1,71.5,68.4,100,95,70,29.93,29.79,10,0,12,0.20
2012-7-25,95.4,80.7,66.9,76.7,70.4,60.8,100,73,48,29.80,29.46,12,2,19,0.03
2012-7-26,86.5,78.4,64.7,75.6,66.0,51.7,100,71,31,29.68,29.48,20,5,26,0.04
2012-7-27,82.8,70.6,62.0,67.1,63.2,59.0,100,80,47,29.97,29.68,12,1,17,0.00
2012-7-28,87.8,73.3,57.5,67.4,61.7,57.5,100,72,37,30.06,29.94,8,0,11,0.00
2012-7-29,83.0,71.0,62.4,71.5,64.8,-99.9,100,85,59,29.98,29.87,8,0,10,0.00
2012-7-30,91.8,77.3,59.3,73.5,67.0,59.3,100,74,49,29.89,29.72,17,2,18,0.01
2012-7-31,89.3,76.1,62.3,68.0,62.2,54.7,100,67,33,29.88,29.79,7,0,14,0.00
2012-8-1,94.0,77.3,55.3,69.2,62.4,55.3,100,66,32,29.88,29.69,17,0,17,0.00
2012-8-2,89.0,75.5,68.3,71.4,67.9,63.3,100,80,46,29.78,29.70,24,1,28,0.06
2012-8-3,93.4,77.7,61.2,71.6,66.8,60.0,100,74,34,29.82,29.72,10,0,13,0.00
2012-8-4,76.1,69.6,62.9,71.8,67.6,62.2,100,94,78,29.85,29.68,24,3,29,0.53
2012-8-5,76.3,66.2,55.9,63.6,55.8,47.8,100,73,41,30.08,29.81,17,5,21,0.00
2012-8-6,83.2,67.5,49.2,62.3,55.6,49.2,100,71,36,30.09,29.87,10,1,12,0.00
2012-8-7,89.9,75.4,62.7,69.1,59.8,48.3,96,64,26,29.90,29.83,12,1,16,0.00
2012-8-8,76.8,67.0,56.9,67.8,63.0,56.5,100,88,67,29.95,29.87,5,0,7,0.15
2012-8-9,66.3,61.4,55.9,65.8,61.4,55.9,100,100,97,29.95,29.86,11,0,11,1.16
2012-8-10,75.3,64.5,55.4,61.9,55.1,48.8,100,76,42,30.01,29.93,13,2,17,0.22
2012-8-11,78.6,63.4,47.6,58.0,51.8,46.2,100,71,35,30.01,29.91,7,0,13,0.00
2012-8-12,75.4,64.2,54.7,62.5,59.0,54.7,100,85,55,29.94,29.88,6,0,8,0.01
2012-8-13,80.1,66.8,59.9,67.2,60.9,55.1,100,84,43,29.93,29.84,13,2,16,0.01
2012-8-14,79.8,68.5,56.7,69.4,59.4,54.0,100,77,43,29.89,29.80,8,0,10,0.00
2012-8-15,84.9,71.8,60.2,66.2,60.9,55.8,100,72,40,29.82,29.67,9,0,14,0.01
2012-8-16,70.9,65.9,58.0,67.9,59.7,51.9,100,82,61,29.91,29.59,21,6,27,0.57
2012-8-17,72.5,60.6,51.0,53.7,47.5,-99.9,100,69,35,29.97,29.89,18,4,18,0.00
2012-8-18,76.0,61.0,45.5,57.8,50.0,44.8,100,73,34,29.95,29.85,7,0,10,0.00
2012-8-19,74.6,62.9,52.2,60.6,55.3,50.2,100,79,46,29.91,29.83,8,0,12,0.00
2012-8-20,75.8,62.0,44.5,56.4,47.4,39.5,100,65,30,29.93,29.88,10,0,10,0.00
2012-8-21,80.7,63.8,46.1,58.2,50.5,45.2,100,68,30,30.01,29.93,10,0,10,0.00
2012-8-22,87.2,68.6,48.6,64.7,55.7,48.6,100,70,32,29.97,29.86,8,0,8,0.00
2012-8-23,88.6,76.9,65.5,68.8,61.4,53.4,94,61,34,29.88,29.78,7,0,11,0.00
2012-8-24,88.4,75.4,63.4,66.6,61.9,56.3,100,67,35,29.90,29.77,12,1,25,0.17
2012-8-25,90.3,73.7,56.9,70.0,62.5,56.9,100,74,36,29.88,29.82,8,0,13,0.04
2012-8-26,80.1,70.9,64.8,75.1,68.8,64.8,100,94,70,29.92,29.82,6,0,7,0.36
2012-8-27,83.6,71.4,59.0,68.0,61.0,55.6,100,74,40,30.00,29.91,11,2,15,0.01
2012-8-28,81.6,67.5,53.5,71.8,62.4,53.5,100,87,49,30.06,29.93,1,0,6,0.09
2012-8-29,88.2,74.0,61.0,70.1,66.1,61.0,100,79,52,29.94,29.79,12,0,13,0.01
2012-8-30,93.2,81.7,71.6,67.7,65.1,62.7,83,59,38,29.79,29.67,14,1,20,0.00
2012-8-31,89.3,76.6,62.6,67.6,59.8,-99.9,91,62,29,29.98,29.75,5,0,7,0.00
2012-9-1,81.2,69.5,57.3,61.2,56.6,48.2,100,69,32,30.04,29.92,12,0,15,0.00
2012-9-2,88.0,71.2,55.6,69.5,63.2,55.0,100,79,50,29.94,29.79,10,0,14,0.00
2012-9-3,85.3,73.1,64.0,74.6,69.4,63.9,100,89,66,29.82,29.75,10,0,13,0.00
2012-9-4,92.7,74.3,60.5,74.8,64.4,45.3,100,76,28,29.78,29.64,7,0,14,0.00
2012-9-5,83.0,70.4,60.1,64.7,60.0,54.1,99,72,44,29.74,29.57,19,2,28,0.18
2012-9-6,82.6,67.8,52.2,59.4,53.2,44.4,100,65,27,29.86,29.74,9,0,16,0.00
2012-9-7,66.9,60.8,58.3,60.5,56.3,48.1,100,87,55,29.82,29.74,11,2,16,0.21
2012-9-8,72.8,57.9,47.3,58.5,51.0,47.1,100,81,44,29.89,29.65,16,4,19,0.34
2012-9-9,71.8,58.2,49.4,57.0,52.0,47.3,100,83,44,30.09,29.87,12,1,13,0.34
2012-9-10,78.5,62.3,44.6,59.6,51.0,44.6,100,71,38,30.10,29.89,11,0,16,0.00
2012-9-11,87.6,73.4,60.1,60.5,55.0,50.9,76,55,31,29.90,29.78,24,1,26,0.00
2012-9-12,78.3,67.1,51.6,60.8,52.2,35.6,100,63,27,30.18,29.82,16,1,19,0.57
2012-9-13,66.8,56.0,50.1,55.9,51.2,41.6,100,87,41,30.29,30.18,8,1,8,0.05
2012-9-14,74.9,58.9,46.4,56.0,47.3,35.1,100,73,25,30.26,30.20,6,0,10,0.05
2012-9-15,78.8,60.2,40.3,55.7,45.8,40.3,100,66,28,30.24,29.98,12,1,16,0.00
2012-9-16,77.0,64.2,49.2,53.1,48.4,40.3,100,61,29,29.98,29.81,11,1,18,0.00
2012-9-17,63.7,55.8,46.0,58.9,52.5,46.0,100,90,65,29.87,29.75,14,2,19,0.18
2012-9-18,56.0,45.9,35.0,45.8,37.3,26.5,100,76,33,29.95,29.86,12,2,19,0.19
2012-9-19,73.7,55.2,32.8,51.8,41.8,32.8,100,65,39,29.94,29.56,17,3,20,0.00
2012-9-20,62.0,52.3,42.6,45.2,39.7,32.9,88,65,34,29.84,29.74,22,4,26,0.00
2012-9-21,60.7,51.5,40.1,51.3,42.0,38.1,98,71,50,29.83,29.70,14,2,20,0.00
2012-9-22,55.9,45.0,36.9,45.4,38.4,33.6,100,80,47,30.15,29.69,19,6,24,0.02
2012-9-23,56.0,43.9,32.1,37.9,33.8,29.8,100,71,37,30.23,30.14,18,3,21,0.01
2012-9-24,73.7,53.9,32.1,43.4,35.4,29.7,99,56,27,30.15,29.69,28,3,31,0.01
2012-9-25,72.3,58.8,42.8,51.8,42.3,35.0,99,58,28,29.86,29.67,12,1,14,0.00
2012-9-26,65.5,49.6,34.7,49.1,37.9,-99.9,100,71,31,30.15,29.86,6,0,0,0.00
2012-9-27,67.3,47.9,31.6,51.0,38.5,31.6,100,76,35,30.26,30.13,5,0,0,0.00
2012-9-28,73.7,53.2,33.5,53.5,40.0,33.5,100,69,26,30.19,30.04,9,0,0,0.00
2012-9-29,79.6,58.1,41.5,54.0,43.6,36.7,100,66,22,30.04,29.92,10,0,0,0.00
2012-9-30,71.1,52.9,38.0,51.2,44.7,38.0,100,79,36,29.99,29.87,7,0,0,0.00
2012-10-1,73.7,57.9,42.3,52.0,46.2,42.3,100,69,38,29.87,29.74,10,0,0,0.00
2012-10-2,56.2,52.0,45.4,52.8,50.7,45.4,100,96,86,29.89,29.79,2,0,0,0.00
2012-10-3,75.8,55.7,39.3,57.0,46.4,39.3,100,77,36,29.93,29.82,6,0,0,0.00
2012-10-4,75.1,52.1,43.6,52.5,41.2,29.6,100,69,41,30.05,29.81,25,7,29,0.00
2012-10-5,50.5,42.8,36.0,31.9,28.0,23.3,80,57,39,30.06,29.96,25,8,28,0.00
2012-10-6,43.3,39.9,37.3,31.4,26.6,22.0,77,59,46,30.17,30.00,18,6,22,0.00
2012-10-7,50.4,39.9,29.3,27.2,22.2,14.6,80,52,26,30.17,29.98,20,2,20,0.00
2012-10-8,62.4,50.3,34.1,36.6,29.3,18.3,60,45,29,29.98,29.67,19,2,25,0.00
2012-10-9,56.2,46.8,40.2,48.8,41.4,31.0,100,83,43,29.84,29.68,25,2,31,0.12
2012-10-10,48.5,39.8,31.6,31.9,27.5,21.6,89,63,36,30.04,29.84,21,5,25,0.02
2012-10-11,52.9,46.1,31.5,36.3,27.4,-99.9,74,50,29,30.31,29.82,18,4,24,0.00
2012-10-12,51.0,32.2,22.9,28.7,22.4,18.0,98,70,27,30.43,30.13,0,0,0,0.04
2012-10-13,57.3,48.6,39.3,57.3,48.2,25.1,100,99,55,30.13,29.61,10,0,0,1.36
2012-10-14,57.0,48.1,42.3,57.0,47.6,40.1,100,98,87,29.76,29.51,14,3,19,1.22
2012-10-15,58.1,45.1,34.3,43.4,39.4,34.3,100,83,48,29.89,29.76,11,2,13,0.01
2012-10-16,69.6,54.6,39.6,52.4,46.4,39.6,100,77,45,29.82,29.34,18,1,19,0.00
2012-10-17,63.7,52.6,41.9,57.8,49.7,41.9,100,91,70,29.34,29.18,13,0,14,0.05
2012-10-18,50.7,45.2,38.8,47.7,43.1,38.8,100,93,77,29.34,29.14,12,1,14,0.01
2012-10-19,50.5,43.9,39.3,46.3,41.8,39.3,100,93,68,29.63,29.34,10,0,0,0.01
2012-10-20,57.5,43.5,34.1,44.0,38.4,34.1,100,85,49,29.84,29.63,11,0,12,0.01
2012-10-21,65.8,48.2,30.7,49.1,41.6,30.7,100,81,48,29.92,29.81,18,1,20,0.01
2012-10-22,62.1,54.3,46.0,56.0,51.6,46.0,100,91,75,29.88,29.81,12,1,12,0.00
2012-10-23,63.2,57.3,53.1,63.2,57.3,53.1,100,100,100,29.85,29.71,11,2,12,0.00
2012-10-24,70.8,65.2,57.2,68.4,64.5,57.2,100,98,91,29.77,29.56,12,1,14,0.00
2012-10-25,69.8,51.8,37.0,68.4,50.2,26.4,100,95,64,30.06,29.44,21,6,31,0.41
2012-10-26,41.2,36.8,30.9,30.0,26.4,23.3,85,66,52,30.32,30.06,20,6,22,0.00
2012-10-27,44.2,36.5,28.8,28.5,23.2,13.1,90,61,30,30.35,30.26,13,1,13,0.00
2012-10-28,47.4,33.1,21.6,34.9,23.1,16.9,100,72,32,30.37,30.28,3,0,0,0.00
2012-10-29,49.6,33.2,20.2,33.5,23.3,15.6,100,73,27,30.37,30.17,5,0,0,0.00
2012-10-30,46.2,35.8,29.8,31.7,25.9,21.6,90,69,39,30.18,29.92,19,4,24,0.00
2012-10-31,46.5,35.6,27.5,26.8,19.5,11.5,88,56,25,29.91,29.82,17,6,21,0.00
2012-11-1,48.3,40.1,31.9,33.3,24.5,13.5,86,55,35,29.93,29.80,17,4,19,0.00
2012-11-2,45.4,35.0,26.0,31.6,26.1,21.5,99,72,40,30.11,29.93,5,0,0,0.00
2012-11-3,44.8,36.2,31.8,31.7,28.0,24.8,94,73,52,30.21,30.10,6,0,0,0.00
2012-11-4,47.7,35.6,27.2,32.1,29.3,25.1,100,79,49,30.20,30.10,6,0,0,0.00
2012-11-5,44.2,32.6,25.0,30.6,27.1,24.4,100,82,54,30.18,30.00,7,0,0,0.00
2012-11-6,36.8,34.9,29.4,35.9,33.5,28.4,100,95,75,30.00,29.73,6,0,0,0.27
2012-11-7,40.5,35.6,32.2,38.6,35.1,32.2,100,98,83,30.07,29.85,6,0,0,0.00
2012-11-8,52.5,40.2,30.9,40.7,35.7,30.9,100,86,55,30.06,29.89,12,0,17,0.00
2012-11-9,48.0,39.8,29.7,45.0,37.7,29.7,100,92,75,29.99,29.90,13,1,14,0.01
2012-11-10,59.6,47.6,43.8,53.1,46.5,43.8,100,96,79,29.91,29.59,14,5,18,0.01
2012-11-12,26.4,24.5,22.9,21.1,15.2,-99.9,85,70,56,30.28,29.90,25,9,26,0.00
2012-11-13,38.5,27.7,17.2,25.1,18.9,-99.9,94,72,42,30.42,30.28,10,0,12,0.00
2012-11-14,50.4,40.7,34.4,32.6,28.5,22.8,72,62,45,30.37,30.21,10,0,0,0.00
2012-11-15,52.9,41.7,31.5,34.2,31.2,28.8,98,68,46,30.34,30.15,13,0,13,0.00
2012-11-16,45.1,34.2,23.3,34.6,29.0,20.3,100,82,63,30.47,30.34,7,0,0,0.00
2012-11-17,53.9,40.1,29.3,42.6,33.7,29.3,100,80,49,30.42,30.31,11,0,13,0.01
2012-11-18,58.4,45.7,31.6,36.2,33.0,28.4,98,64,37,30.31,30.16,12,1,16,0.00
2012-11-19,48.3,45.5,41.2,42.6,37.9,33.6,96,75,59,30.16,30.01,7,0,12,0.01
2012-11-20,56.2,42.1,30.7,47.2,39.0,30.7,100,90,59,30.11,30.01,6,0,0,0.00
2012-11-21,62.4,46.5,27.8,46.8,39.0,27.8,100,78,48,30.10,29.82,16,1,18,0.01
2012-11-22,61.8,51.8,32.9,47.1,39.8,22.8,78,64,51,29.81,29.54,30,5,32,0.00
2012-11-23,32.9,25.7,23.0,23.4,16.2,13.0,73,67,62,30.25,29.78,33,13,34,0.00
2012-11-24,30.0,25.1,19.1,19.5,14.4,-99.9,74,65,55,30.25,29.83,12,2,16,0.00
2012-11-25,34.9,29.0,23.5,22.1,20.1,17.4,85,69,55,30.08,29.77,18,4,19,0.00
2012-11-26,27.5,21.1,9.7,22.2,9.8,2.0,83,62,41,30.39,30.08,19,4,25,0.00
2012-11-27,32.9,22.3,8.6,15.3,10.8,4.5,86,63,41,30.38,30.14,14,2,18,0.00
2012-11-28,34.1,26.3,16.7,24.2,19.3,-99.9,98,76,59,30.33,30.13,13,2,13,0.00
2012-11-29,87.9,35.1,24.1,33.6,27.6,21.8,98,75,55,30.13,30.00,11,0,12,0.00
2012-11-30,94.6,32.9,30.0,94.6,32.4,29.9,100,98,89,30.16,30.06,11,2,16,0.00
2012-12-1,49.4,41.5,35.5,49.4,40.9,35.5,100,98,86,30.11,29.71,13,2,14,0.01
2012-12-2,48.9,41.7,37.5,48.9,41.6,37.5,100,100,97,29.98,29.75,12,1,0,0.00
2012-12-3,60.5,48.9,38.5,59.9,47.1,-99.9,100,95,76,29.90,29.53,21,4,24,0.12
2012-12-4,44.5,36.9,23.2,36.2,25.4,11.8,81,63,45,30.34,29.85,22,6,26,0.00
2012-12-5,34.7,26.1,15.9,23.3,15.7,11.2,88,66,44,30.42,30.06,14,1,14,0.00
2012-12-6,45.8,40.2,34.7,38.1,32.1,23.0,84,73,62,30.06,29.75,17,3,21,0.00
2012-12-7,36.9,31.6,28.4,29.8,25.1,-14.6,90,77,63,29.98,29.88,10,0,0,0.00
2012-12-8,36.0,29.9,25.4,26.2,23.6,21.5,91,78,57,30.06,29.95,11,0,13,0.00
2012-12-9,31.5,30.8,29.8,31.2,29.3,25.0,100,94,78,30.06,29.69,10,1,13,0.02
2012-12-10,29.8,24.6,17.8,29.8,23.7,16.0,100,96,88,29.90,29.69,11,0,0,0.00
2012-12-11,23.6,20.1,14.8,21.8,17.2,13.2,100,89,77,30.05,29.83,14,1,18,0.00
2012-12-12,39.8,29.8,14.1,27.1,22.6,13.4,100,77,55,30.08,29.97,17,2,21,0.24
2012-12-13,41.1,33.9,22.5,25.0,22.0,19.4,96,63,45,30.10,29.95,13,1,18,0.03
2012-12-14,42.2,30.3,19.4,33.9,25.3,18.6,100,83,55,30.15,29.89,8,0,0,0.00
2012-12-15,39.1,37.1,34.9,39.1,36.8,33.4,100,99,94,29.89,29.46,16,1,16,0.45
2012-12-16,38.8,34.2,28.1,38.8,34.2,27.2,100,100,96,29.70,29.45,14,5,18,0.11
2012-12-17,28.1,24.8,22.9,27.7,22.4,20.9,99,91,84,29.74,29.67,15,2,18,0.00
2012-12-18,28.4,26.3,21.8,27.3,25.0,21.5,100,95,89,29.82,29.61,5,0,0,0.00
2012-12-19,33.5,31.0,28.4,30.6,28.8,26.6,100,92,82,29.99,29.82,5,0,0,0.00
2012-12-20,30.0,28.2,22.7,30.0,27.3,17.8,100,96,80,29.85,29.44,27,9,35,0.00
2012-12-21,22.7,15.9,9.0,17.5,8.7,3.8,82,73,62,30.23,29.74,27,7,33,0.00
2012-12-22,28.1,13.8,2.6,14.3,7.2,-0.3,91,76,48,30.20,29.96,3,0,0,0.00
2012-12-23,26.0,18.4,7.6,17.1,12.7,-99.9,95,80,63,30.08,29.95,7,0,0,0.00
2012-12-24,24.7,18.7,10.5,15.2,11.8,-99.9,89,76,62,30.19,29.95,11,1,14,0.00
2012-12-25,18.4,9.7,3.5,7.7,2.8,-0.8,84,73,58,30.43,30.19,11,2,13,0.00
2012-12-26,25.4,15.2,6.0,14.5,8.8,0.4,84,76,61,30.36,30.19,6,0,0,0.00
2012-12-27,24.2,19.5,13.8,17.2,13.3,9.1,93,77,63,30.24,30.13,3,0,0,0.00
2012-12-28,24.2,21.1,18.6,22.6,19.9,16.9,100,95,89,30.13,29.91,2,0,0,0.00
2012-12-29,21.9,18.4,11.4,21.9,15.9,7.9,100,90,77,30.16,29.91,12,3,17,0.00
2012-12-30,26.9,15.9,3.7,20.7,10.5,0.7,90,79,66,30.25,29.88,10,1,18,0.00
2012-12-31,24.5,15.7,3.5,20.2,9.2,-3.7,91,75,60,30.21,29.88,17,5,21,0.00
2013-1-1,14.9,5.3,-5.4,8.6,-2.7,-10.3,81,68,52,30.27,30.09,11,2,0,0.00